Content
SEND FEEDBACK

Daily
Averages
Monthly
Summary
Spain

SANTA CRUZ DE TENERIFE, SPAIN


Home > Europe > Spain
Elevation: 151 feet     Latitude: 28 27N     Longitude: 016 15W

WEATHER
 
SELECT A DAY
Number of Records: 206,293;   Date Range: 7/1/96 - 7/29/14
 
SHARE

PRINT THIS DATA

[ ← Previous Day ]
WEATHER ALMANAC - APRIL 17, 2013
[ Next Day → ]
[ °C ]   °F
Weather ElementAverageHighLow
Temperature58.6 °F64.4 °F (2:30 pm)55.4 °F (6:30 am)
Dewpoint56.1 °F57.2 °F (12:00 pm)53.6 °F (6:30 am)
Humidity91.6 %100 % (7:36 pm)77 % (2:30 pm)
Barometer30.09 in30.12 in (10:30 am)30.06 in (6:30 am)
Wind Speed20.8 mph23 mph (9:08 am)
Wind Gust31.1 mph (12:05 pm)
Weather ElementAverage
Visibility4.7 mi
Wind DirectionWNW (306.1 °)

Weather ElementTotal
Precipitation---
Heating Degree Days5.1 (Base 65)
Growing Degree Days9.9 (Base 50)
Averaged from 44 records on April 17, 2013
WEATHER CONDITIONS BREAKOUT
WIND DIRECTION BREAKOUT
WEATHER BY HOUR - APRIL 17, 2013
[ °C ]   °F
Local TimeTemperatureDewpointHumidityBarometerVisibilityWind DirectionWind SpeedGust SpeedPrecipitationEventsConditions
6:30 AM55.4 °F53.6 °F94 %30.06 in6.2 miWNW (300°)20.7 mphMostly Cloudy
7:00 AM55.4 °F53.6 °F94 %30.06 in6.2 miWNW (300°)20.7 mphMostly Cloudy
7:30 AM55.4 °F53.6 °F94 %30.09 in6.2 miWNW (300°)20.7 mphMostly Cloudy
7:40 AM57.2 °F53.6 °F88 %30.09 in6.2 miWNW (300°)20.7 mphMostly Cloudy
8:00 AM57.2 °F53.6 °F88 %30.09 in6.2 miWNW (290°)20.7 mphMostly Cloudy
8:30 AM57.2 °F55.4 °F94 %30.09 in6.2 miWNW (300°)21.9 mphFogLight Drizzle
8:50 AM57.2 °F55.4 °F94 %30.09 in6.2 miWNW (290°)21.9 mphFogPatches of Fog
9:00 AM57.2 °F55.4 °F94 %30.09 in6.2 miWNW (300°)21.9 mphFogPatches of Fog
9:08 AM57.2 °F55.4 °F94 %30.09 in4.3 miWNW (300°)23.0 mphFogPatches of Fog
9:30 AM57.2 °F55.4 °F94 %30.09 in5.6 miWNW (300°)23.0 mphFogPatches of Fog
9:46 AM59.0 °F55.4 °F88 %30.09 in5.6 miWNW (300°)20.7 mphFogPatches of Fog
10:00 AM57.2 °F55.4 °F94 %30.09 in6.2 miNW (310°)20.7 mphFogPatches of Fog
10:01 AM57.2 °F55.4 °F94 %30.09 in6.2 miNW (310°)20.7 mphFogPatches of Fog
10:30 AM59.0 °F55.4 °F88 %30.12 in6.2 miNW (310°)20.7 mphFogPatches of Fog
11:00 AM59.0 °F55.4 °F88 %30.12 in6.2 miNW (310°)20.7 mphFogPatches of Fog
11:30 AM59.0 °F55.4 °F88 %30.12 in6.2 miNW (310°)18.4 mphFogPatches of Fog
12:00 PM59.0 °F57.2 °F94 %30.12 in6.2 miNW (310°)20.7 mphFogPatches of Fog
12:05 PM59.0 °F57.2 °F94 %30.12 in5.0 miNW (310°)19.6 mph31.1 mphFogPatches of Fog
12:30 PM59.0 °F57.2 °F94 %30.12 in5.0 miNW (310°)20.7 mphFogPatches of Fog
1:00 PM59.0 °F57.2 °F94 %30.12 in5.6 miNW (310°)20.7 mphFogPatches of Fog
1:30 PM60.8 °F57.2 °F88 %30.12 in6.2 miNW (310°)20.7 mphFogPatches of Fog
2:00 PM62.6 °F57.2 °F82 %30.09 in6.2 miNW (310°)19.6 mphFogMostly Cloudy
2:02 PM62.6 °F57.2 °F82 %30.09 in6.2 miNW (310°)19.6 mphFogScattered Clouds
2:30 PM64.4 °F57.2 °F77 %30.09 in6.2 miNW (310°)21.9 mphFogScattered Clouds
3:00 PM62.6 °F57.2 °F82 %30.09 in6.2 miNW (310°)20.7 mphFogScattered Clouds
3:30 PM60.8 °F55.4 °F82 %30.09 in6.2 miNW (310°)21.9 mphFogScattered Clouds
4:00 PM60.8 °F55.4 °F82 %30.09 in6.2 miNW (310°)20.7 mphFogScattered Clouds
4:30 PM60.8 °F55.4 °F82 %30.09 in6.2 miNW (310°)19.6 mphFogScattered Clouds
5:30 PM60.8 °F55.4 °F82 %30.09 in6.2 miNW (310°)19.6 mphFogScattered Clouds
6:00 PM60.8 °F55.4 °F82 %30.09 in6.2 miNW (310°)19.6 mphFogScattered Clouds
6:30 PM59.0 °F55.4 °F88 %30.09 in6.2 miWNW (300°)21.9 mphFogMostly Cloudy
7:00 PM59.0 °F55.4 °F88 %30.09 in6.2 miWNW (300°)21.9 mphFogMostly Cloudy
7:11 PM59.0 °F57.2 °F94 %30.09 in3.1 miNW (310°)20.7 mphRainLight Rain
7:30 PM59.0 °F57.2 °F94 %30.09 in2.5 miNW (310°)20.7 mphRainLight Rain
7:36 PM57.2 °F57.2 °F100 %30.09 in0.3 miNW (310°)20.7 mphMostly Cloudy
8:00 PM57.2 °F57.2 °F100 %30.09 in1.9 miNW (310°)19.6 mphFogFog
8:19 PM57.2 °F57.2 °F100 %30.09 in0.3 miNW (310°)19.6 mphFogFog
8:30 PM57.2 °F57.2 °F100 %30.09 in0.3 miNW (310°)20.7 mphFogFog
9:00 PM57.2 °F57.2 °F100 %30.09 in0.1 miWNW (300°)21.9 mphFogFog
9:12 PM57.2 °F57.2 °F100 %30.09 in1.9 miNW (310°)20.7 mphOvercast
9:30 PM57.2 °F57.2 °F100 %30.09 in0.3 miWNW (300°)20.7 mphFogFog
9:46 PM57.2 °F57.2 °F100 %30.09 in2.5 miNW (310°)21.9 mphMostly Cloudy
10:00 PM57.2 °F57.2 °F100 %30.09 in1.9 miNW (310°)20.7 mphMostly Cloudy
10:30 PM57.2 °F57.2 °F100 %30.12 in0.3 miNW (310°)19.6 mphFogFog
Hourly data recorded from GCXO, located miles away from Santa Cruz de Tenerife, Spain







STORIES FROM OUR PARTNERS